FW9262 Weather Reports


time (UTC)temp
C
wind
direction
speed
KPH
gust
KPH
rain 1hr
cm
rain 24hr
cm
rain mn
cm
humidity
%
barometer
mb
20220629034030 18 325 0.0 1.6 0.00 0.00 0.00 85 1014.9
20220629033529 18 153 3.2 4.8 0.00 0.00 0.00 85 1014.9
20220629033028 18 291 1.6 4.8 0.00 0.00 0.00 85 1015.3
20220629032527 18 257 3.2 4.8 0.00 0.00 0.00 84 1015.3
20220629032026 18 298 1.6 4.8 0.00 0.00 0.00 84 1014.9
20220629031525 18 343 0.0 0.0 0.00 0.00 0.00 84 1015.3
20220629031023 18 309 0.0 3.2 0.00 0.00 0.00 84 1015.3
20220629030522 18 309 1.6 4.8 0.00 0.00 0.00 83 1014.9
20220629030021 18 313 1.6 3.2 0.00 0.00 0.00 82 1014.9
20220629025519 18 318 1.6 3.2 0.00 0.00 0.00 82 1014.9
20220629025018 18 337 1.6 3.2 0.00 0.00 0.00 82 1014.9
20220629024517 19 315 0.0 4.8 0.00 0.00 0.00 82 1014.9
20220629024016 19 280 3.2 6.4 0.00 0.00 0.00 82 1014.9
20220629023515 19 211 3.2 4.8 0.00 0.00 0.00 81 1014.9
20220629023013 19 332 1.6 4.8 0.00 0.00 0.00 81 1014.9
20220629022513 19 259 4.8 6.4 0.00 0.00 0.00 80 1014.6
20220629022011 20 285 4.8 6.4 0.00 0.00 0.00 79 1014.6
20220629021510 20 357 3.2 6.4 0.00 0.00 0.00 78 1014.9
20220629021009 20 310 1.6 3.2 0.00 0.00 0.00 77 1014.6
20220629020509 20 290 3.2 4.8 0.00 0.00 0.00 76 1014.6
20220629020009 20 265 3.2 6.4 0.00 0.00 0.00 76 1014.6
20220629015508 20 283 1.6 9.7 0.00 0.00 0.00 75 1014.6
20220629015008 20 16 3.2 6.4 0.00 0.00 0.00 74 1014.3
20220629014508 21 331 4.8 6.4 0.00 0.00 0.00 73 1014.6
20220629014007 20 230 4.8 6.4 0.00 0.00 0.00 75 1014.6
20220629013506 20 323 1.6 4.8 0.00 0.00 0.00 75 1014.6
20220629013006 21 281 3.2 6.4 0.00 0.00 0.00 75 1014.6
20220629012505 20 278 1.6 4.8 0.00 0.00 0.00 77 1014.6
20220629012003 20 306 3.2 9.7 0.00 0.00 0.00 76 1014.6
20220629011502 21 228 6.4 6.4 0.00 0.00 0.00 75 1014.3
20220629011002 21 285 6.4 6.4 0.00 0.00 0.00 75 1014.6
20220629010501 21 307 3.2 6.4 0.00 0.00 0.00 76 1014.3
20220629010001 20 281 4.8 11.3 0.00 0.00 0.00 76 1014.6
20220629005500 21 235 3.2 6.4 0.00 0.00 0.00 75 1014.3
20220629004958 21 237 4.8 9.7 0.00 0.00 0.00 74 1014.6
20220629004456 21 218 3.2 9.7 0.00 0.00 0.00 75 1014.6
20220629003955 21 251 4.8 9.7 0.00 0.00 0.00 74 1014.9
20220629003453 21 224 3.2 6.4 0.00 0.00 0.00 75 1014.6
20220629002953 21 277 4.8 9.7 0.00 0.00 0.00 75 1014.6
20220629002452 21 287 6.4 6.4 0.00 0.00 0.00 73 1014.6
20220629001950 21 315 1.6 4.8 0.00 0.00 0.00 75 1014.9
20220629001449 21 315 6.4 9.7 0.00 0.00 0.00 75 1014.9
20220629000949 21 190 4.8 9.7 0.00 0.00 0.00 74 1014.9
20220629000445 22 261 4.8 11.3 0.00 0.00 0.00 73 1014.9
20220628235944 21 333 3.2 11.3 0.00 0.00 0.00 73 1015.3
20220628235443 21 320 3.2 6.4 0.00 0.00 0.00 74 1014.9
20220628234942 22 283 4.8 11.3 0.00 0.00 0.00 73 1014.9
20220628234441 22 297 3.2 9.7 0.00 0.00 0.00 73 1015.3
20220628233940 22 301 4.8 6.4 0.00 0.00 0.00 72 1014.9
20220628233439 22 119 4.8 9.7 0.00 0.00 0.00 72 1015.3
20220628232937 22 247 6.4 9.7 0.00 0.00 0.00 71 1015.3
20220628232438 22 250 3.2 9.7 0.00 0.00 0.00 72 1015.3
20220628231936 22 275 3.2 11.3 0.00 0.00 0.00 71 1014.9
20220628231436 22 307 3.2 4.8 0.00 0.00 0.00 70 1015.3
20220628230936 22 297 0.0 9.7 0.00 0.00 0.00 70 1015.3
20220628230435 22 219 3.2 9.7 0.00 0.00 0.00 70 1015.3
20220628225934 22 294 6.4 11.3 0.00 0.00 0.00 71 1015.6
20220628225435 22 286 3.2 6.4 0.00 0.00 0.00 71 1015.3
20220628224933 22 304 3.2 9.7 0.00 0.00 0.00 72 1015.3
20220628224432 22 277 3.2 12.9 0.00 0.00 0.00 72 1015.6
20220628223930 22 212 6.4 9.7 0.00 0.00 0.00 71 1015.6
20220628223429 22 298 4.8 11.3 0.00 0.00 0.00 72 1015.6
20220628222928 23 248 6.4 11.3 0.00 0.00 0.00 68 1015.6
20220628222428 22 295 4.8 11.3 0.00 0.00 0.00 70 1015.6
20220628221927 23 301 6.4 12.9 0.00 0.00 0.00 69 1015.6
20220628221425 22 302 1.6 6.4 0.00 0.00 0.00 70 1015.6
20220628220925 23 221 3.2 9.7 0.00 0.00 0.00 69 1016.0
20220628220425 23 302 4.8 9.7 0.00 0.00 0.00 69 1016.0
20220628215925 22 232 3.2 6.4 0.00 0.00 0.00 70 1016.0
20220628215424 22 267 4.8 11.3 0.00 0.00 0.00 70 1016.0
20220628214923 22 267 3.2 9.7 0.00 0.00 0.00 70 1015.6
20220628214422 22 241 9.7 11.3 0.00 0.00 0.00 70 1015.6
20220628213921 22 308 4.8 9.7 0.00 0.00 0.00 70 1016.0
20220628213419 22 284 4.8 6.4 0.00 0.00 0.00 70 1016.0
20220628212918 22 229 3.2 6.4 0.00 0.00 0.00 70 1016.0
20220628212417 22 229 3.2 6.4 0.00 0.00 0.00 69 1016.0
20220628211915 22 220 3.2 9.7 0.00 0.00 0.00 70 1016.0
20220628211414 22 271 8.0 9.7 0.00 0.00 0.00 70 1016.0
20220628210914 22 237 6.4 9.7 0.00 0.00 0.00 70 1016.0
20220628210412 22 279 4.8 11.3 0.00 0.00 0.00 69 1016.0
20220628205912 22 283 6.4 6.4 0.00 0.00 0.00 68 1016.0
20220628205412 23 322 4.8 6.4 0.00 0.00 0.00 69 1016.3
20220628204911 22 330 1.6 9.7 0.00 0.00 0.00 69 1016.3
20220628204410 22 239 6.4 11.3 0.00 0.00 0.00 69 1016.0
20220628203909 22 211 3.2 12.9 0.00 0.00 0.00 69 1016.3
20220628203409 22 209 3.2 9.7 0.00 0.00 0.00 69 1016.3
20220628202907 23 112 4.8 11.3 0.00 0.00 0.00 68 1016.0
20220628202406 22 190 4.8 11.3 0.00 0.00 0.00 69 1016.3
20220628201906 23 270 3.2 6.4 0.00 0.00 0.00 67 1016.3
20220628201405 23 244 3.2 9.7 0.00 0.00 0.00 68 1016.3
20220628200904 22 303 3.2 9.7 0.00 0.00 0.00 69 1016.3
20220628200403 22 204 3.2 9.7 0.00 0.00 0.00 68 1016.6
20220628195902 23 274 3.2 6.4 0.00 0.00 0.00 66 1016.6
20220628195402 23 56 4.8 11.3 0.00 0.00 0.00 69 1016.6
20220628194901 22 223 4.8 9.7 0.00 0.00 0.00 70 1016.6
20220628194400 22 259 4.8 9.7 0.00 0.00 0.00 69 1016.6
20220628193859 22 325 6.4 11.3 0.00 0.00 0.00 70 1016.6
20220628193358 23 288 4.8 11.3 0.00 0.00 0.00 69 1016.6
20220628192857 22 286 6.4 9.7 0.00 0.00 0.00 69 1017.0
20220628192357 22 217 3.2 9.7 0.00 0.00 0.00 71 1017.0
20220628191856 22 299 6.4 9.7 0.00 0.00 0.00 69 1016.6
20220628191355 23 263 4.8 9.7 0.00 0.00 0.00 68 1017.0
20220628190854 23 352 1.6 6.4 0.00 0.00 0.00 67 1017.0
20220628190353 23 221 3.2 6.4 0.00 0.00 0.00 68 1017.0
20220628185852 23 240 4.8 6.4 0.00 0.00 0.00 67 1016.6
20220628185351 22 257 6.4 9.7 0.00 0.00 0.00 71 1017.0
20220628184850 22 74 4.8 11.3 0.00 0.00 0.00 70 1017.0
20220628184349 23 281 4.8 6.4 0.00 0.00 0.00 69 1017.0
20220628183848 23 261 3.2 9.7 0.00 0.00 0.00 70 1017.0
20220628183347 23 248 6.4 6.4 0.00 0.00 0.00 69 1017.0
20220628182847 23 285 3.2 9.7 0.00 0.00 0.00 70 1017.0
20220628182345 23 233 6.4 6.4 0.00 0.00 0.00 68 1017.0
20220628181844 23 313 3.2 4.8 0.00 0.00 0.00 68 1017.0
20220628181341 23 246 3.2 6.4 0.00 0.00 0.00 69 1017.0
20220628180839 23 269 4.8 4.8 0.00 0.00 0.00 67 1017.0
20220628180338 23 227 3.2 6.4 0.00 0.00 0.00 70 1017.0
20220628175837 22 242 3.2 6.4 0.00 0.00 0.00 71 1016.6
20220628175337 23 321 1.6 4.8 0.00 0.00 0.00 71 1017.0
20220628174836 23 146 3.2 6.4 0.00 0.00 0.00 70 1017.0
20220628174337 23 286 4.8 6.4 0.00 0.00 0.00 70 1017.0
20220628173835 23 306 4.8 4.8 0.00 0.00 0.00 68 1017.0
20220628173336 23 296 6.4 6.4 0.00 0.00 0.00 69 1016.6
20220628172834 23 284 4.8 6.4 0.00 0.00 0.00 69 1016.6
20220628172334 23 300 3.2 4.8 0.00 0.00 0.00 70 1016.6
20220628171832 22 241 4.8 6.4 0.00 0.00 0.00 73 1017.0
20220628171332 22 307 1.6 6.4 0.00 0.00 0.00 73 1016.6
20220628170832 22 328 4.8 6.4 0.00 0.00 0.00 73 1016.6
20220628170331 22 219 3.2 4.8 0.00 0.00 0.00 71 1016.6
20220628165829 22 244 3.2 4.8 0.00 0.00 0.00 73 1016.6
20220628165328 22 203 4.8 6.4 0.00 0.00 0.00 73 1017.0
20220628164827 22 330 3.2 6.4 0.00 0.00 0.00 73 1016.6
20220628164327 22 283 4.8 4.8 0.00 0.00 0.00 74 1016.6
20220628163825 22 241 1.6 3.2 0.00 0.00 0.00 75 1017.0
20220628163325 22 261 0.0 4.8 0.00 0.00 0.00 76 1016.6
20220628162825 22 344 3.2 4.8 0.00 0.00 0.00 74 1017.0
20220628162323 22 99 3.2 4.8 0.00 0.00 0.00 76 1017.0
20220628161822 21 350 0.0 3.2 0.00 0.00 0.00 78 1017.0
20220628161321 21 107 4.8 4.8 0.00 0.00 0.00 78 1017.0
20220628160819 21 332 0.0 4.8 0.00 0.00 0.00 79 1016.6
20220628160319 20 176 3.2 3.2 0.00 0.00 0.00 80 1017.0
20220628155818 20 286 1.6 3.2 0.00 0.00 0.00 81 1017.0
20220628155316 20 273 0.0 4.8 0.00 0.00 0.00 81 1017.0
20220628154815 20 293 1.6 3.2 0.00 0.00 0.00 82 1016.6
20220628154314 20 295 3.2 4.8 0.00 0.00 0.00 82 1017.0
20220628153812 20 287 1.6 1.6 0.00 0.00 0.00 83 1017.0
20220628153312 20 295 4.8 6.4 0.00 0.00 0.00 83 1017.0
20220628152811 19 328 0.0 4.8 0.00 0.00 0.00 86 1016.6
20220628152310 19 269 3.2 6.4 0.00 0.00 0.00 87 1016.6
20220628151807 19 308 1.6 4.8 0.00 0.00 0.00 89 1017.0
20220628151306 18 327 1.6 3.2 0.00 0.00 0.00 91 1016.6
20220628150805 18 301 1.6 3.2 0.00 0.00 0.00 92 1016.6
20220628150305 18 346 0.0 3.2 0.00 0.00 0.00 93 1016.6
20220628145804 17 302 0.0 0.0 0.00 0.00 0.00 93 1016.6
20220628145304 17 338 0.0 1.6 0.00 0.00 0.00 94 1016.6
20220628144802 17 336 0.0 1.6 0.00 0.00 0.00 94 1016.6
20220628144302 17 295 0.0 3.2 0.00 0.00 0.00 94 1016.6
20220628143801 17 330 0.0 0.0 0.00 0.00 0.00 95 1016.3
20220628143301 17 209 0.0 3.2 0.00 0.00 0.00 95 1016.3
20220628142759 17 337 0.0 0.0 0.00 0.00 0.00 95 1016.3
20220628142259 17 337 0.0 0.0 0.00 0.00 0.00 95 1016.3
20220628141757 17 340 0.0 0.0 0.00 0.00 0.00 95 1016.3
20220628141256 17 26 0.0 1.6 0.00 0.00 0.00 95 1016.0
20220628140754 17 13 0.0 0.0 0.00 0.00 0.00 95 1016.3
20220628140252 16 320 0.0 0.0 0.00 0.00 0.00 95 1016.0
20220628135752 17 326 0.0 0.0 0.00 0.00 0.00 95 1016.0
20220628135251 17 344 0.0 0.0 0.00 0.00 0.00 95 1016.0
20220628134750 17 350 0.0 0.0 0.00 0.00 0.00 95 1016.0
20220628134249 16 337 0.0 0.0 0.00 0.00 0.00 95 1015.6
20220628133749 16 341 0.0 0.0 0.00 0.00 0.00 95 1015.6
20220628133249 16 339 0.0 0.0 0.00 0.00 0.00 95 1016.0
20220628132748 16 346 0.0 0.0 0.00 0.00 0.00 95 1015.6
20220628132247 16 347 0.0 0.0 0.00 0.00 0.00 95 1015.6
20220628131746 16 349 0.0 0.0 0.00 0.00 0.00 95 1016.0
20220628131245 16 330 0.0 0.0 0.00 0.00 0.00 95 1016.0
20220628130744 16 357 0.0 0.0 0.00 0.00 0.00 95 1016.0
20220628130243 16 334 0.0 0.0 0.00 0.00 0.00 95 1016.0
20220628125742 16 327 0.0 1.6 0.00 0.00 0.00 95 1015.6
20220628125241 16 243 1.6 3.2 0.00 0.00 0.00 95 1016.0
20220628124740 17 332 0.0 0.0 0.00 0.00 0.00 95 1015.6
20220628124240 16 316 1.6 1.6 0.00 0.00 0.00 95 1015.6
20220628123738 16 333 0.0 0.0 0.00 0.00 0.00 95 1016.0
20220628123238 16 317 1.6 3.2 0.00 0.00 0.00 95 1015.6
20220628122737 16 282 1.6 3.2 0.00 0.00 0.00 95 1016.0
20220628122236 16 331 0.0 3.2 0.00 0.00 0.00 95 1016.0
20220628121734 16 330 1.6 3.2 0.00 0.00 0.00 95 1015.6
20220628121233 16 326 0.0 0.0 0.00 0.00 0.00 95 1016.0
20220628120732 16 319 0.0 0.0 0.00 0.00 0.00 95 1015.6
20220628120232 16 339 0.0 0.0 0.00 0.00 0.00 95 1015.6
20220628115731 16 338 0.0 1.6 0.00 0.00 0.00 94 1016.0
20220628115231 16 340 0.0 0.0 0.00 0.00 0.00 94 1015.6
20220628114729 16 330 0.0 0.0 0.00 0.00 0.00 94 1015.6
20220628114229 16 341 0.0 0.0 0.00 0.00 0.00 94 1016.0
20220628113728 16 345 0.0 0.0 0.00 0.00 0.00 94 1016.0
20220628113227 16 341 0.0 0.0 0.00 0.00 0.00 94 1015.6
20220628112726 16 356 0.0 0.0 0.00 0.00 0.00 94 1015.6
20220628112226 17 342 0.0 0.0 0.00 0.00 0.00 94 1016.0
20220628111724 17 347 0.0 0.0 0.00 0.00 0.00 94 1015.6
20220628111223 17 342 0.0 0.0 0.00 0.00 0.00 94 1015.6
20220628110723 17 308 0.0 0.0 0.00 0.00 0.00 94 1015.6
20220628110222 17 341 0.0 0.0 0.00 0.00 0.00 94 1016.0
20220628105720 17 286 0.0 1.6 0.00 0.00 0.00 94 1016.0
20220628105219 17 342 0.0 1.6 0.00 0.00 0.00 94 1015.6
20220628104717 17 330 0.0 0.0 0.00 0.00 0.00 94 1016.0
20220628104216 17 287 0.0 0.0 0.00 0.00 0.00 94 1015.6
20220628103715 17 340 0.0 0.0 0.00 0.00 0.00 94 1015.6
20220628103213 17 343 0.0 0.0 0.00 0.00 0.00 94 1015.6
20220628102713 17 348 0.0 0.0 0.00 0.00 0.00 93 1016.0
20220628102212 17 340 0.0 0.0 0.00 0.00 0.00 93 1016.0
20220628101710 17 309 1.6 3.2 0.00 0.00 0.00 93 1015.6
20220628101209 17 324 0.0 1.6 0.00 0.00 0.00 93 1016.0
20220628100708 17 327 0.0 1.6 0.00 0.00 0.00 93 1015.6
20220628100207 17 320 0.0 3.2 0.00 0.00 0.00 93 1015.6
20220628095707 17 343 0.0 0.0 0.00 0.00 0.00 93 1015.6
20220628095206 17 342 0.0 0.0 0.00 0.00 0.00 93 1015.6
20220628094706 16 339 0.0 0.0 0.00 0.00 0.00 93 1016.0
20220628094206 16 331 0.0 0.0 0.00 0.00 0.00 93 1016.3
20220628093704 16 345 0.0 0.0 0.00 0.00 0.00 93 1016.0
20220628093203 17 326 0.0 0.0 0.00 0.00 0.00 93 1016.0
20220628092703 17 337 0.0 0.0 0.00 0.00 0.00 92 1016.3
20220628092202 17 326 0.0 0.0 0.00 0.00 0.00 92 1016.3
20220628091702 17 339 0.0 0.0 0.00 0.00 0.00 92 1016.3
20220628091202 17 338 0.0 0.0 0.00 0.00 0.00 92 1016.3
20220628090700 17 338 0.0 0.0 0.00 0.00 0.00 92 1016.6
20220628090159 17 330 0.0 0.0 0.00 0.00 0.00 92 1016.6
20220628085658 17 342 0.0 0.0 0.00 0.00 0.00 92 1016.6
20220628085157 17 334 0.0 0.0 0.00 0.00 0.00 92 1016.3
20220628084656 17 329 0.0 0.0 0.00 0.00 0.00 92 1016.3
20220628084155 17 328 0.0 0.0 0.00 0.00 0.00 92 1016.3
20220628083655 17 339 0.0 1.6 0.00 0.00 0.00 92 1016.0
20220628083154 17 337 0.0 0.0 0.00 0.00 0.00 92 1016.3
20220628082654 17 329 0.0 0.0 0.00 0.00 0.00 92 1016.0
20220628082153 17 342 0.0 0.0 0.00 0.00 0.00 92 1016.0
20220628081653 17 344 0.0 0.0 0.00 0.00 0.00 92 1016.0
20220628081153 17 335 0.0 0.0 0.00 0.00 0.00 91 1016.0
20220628080652 17 344 0.0 0.0 0.00 0.00 0.00 91 1016.3
20220628080151 17 349 0.0 0.0 0.00 0.00 0.00 91 1016.0
20220628075650 17 340 0.0 0.0 0.00 0.00 0.00 91 1016.3
20220628075149 17 344 0.0 0.0 0.00 0.00 0.00 91 1016.3
20220628074648 17 345 0.0 0.0 0.00 0.00 0.00 91 1016.3
20220628074148 17 350 0.0 0.0 0.00 0.00 0.00 91 1016.6
20220628073647 17 71 1.6 1.6 0.00 0.00 0.00 91 1016.6
20220628073146 17 342 0.0 0.0 0.00 0.00 0.00 91 1016.3
20220628072646 17 315 0.0 0.0 0.00 0.00 0.00 91 1016.0
20220628072145 17 319 0.0 3.2 0.00 0.00 0.00 91 1016.0
20220628071644 17 339 0.0 0.0 0.00 0.00 0.00 91 1016.3
20220628071144 17 339 0.0 0.0 0.00 0.00 0.00 91 1016.3
20220628070642 17 343 0.0 0.0 0.00 0.00 0.00 91 1016.0
20220628070141 17 341 0.0 0.0 0.00 0.00 0.00 91 1016.3
20220628065640 17 276 1.6 3.2 0.00 0.00 0.00 90 1016.3
20220628065140 17 308 3.2 3.2 0.00 0.00 0.00 90 1016.3
20220628064638 17 283 1.6 3.2 0.00 0.00 0.00 90 1016.3
20220628064136 17 339 0.0 1.6 0.00 0.00 0.00 90 1016.3
20220628063635 17 333 0.0 1.6 0.00 0.00 0.00 90 1016.3
20220628063134 17 314 0.0 3.2 0.00 0.00 0.00 90 1016.3
20220628062633 17 320 1.6 1.6 0.00 0.00 0.00 90 1016.6
20220628062132 17 335 0.0 0.0 0.00 0.00 0.00 90 1016.6
20220628061631 17 313 1.6 1.6 0.00 0.00 0.00 90 1016.3
20220628061130 17 339 0.0 1.6 0.00 0.00 0.00 90 1016.3
20220628060630 17 287 3.2 4.8 0.00 0.00 0.00 90 1016.3
20220628060129 17 311 1.6 1.6 0.00 0.00 0.00 89 1016.6
20220628055628 17 339 0.0 0.0 0.00 0.00 0.00 90 1016.3
20220628055128 17 331 0.0 0.0 0.00 0.00 0.00 90 1016.6
20220628054628 17 335 0.0 1.6 0.00 0.00 0.00 89 1016.6
20220628054126 17 328 0.0 0.0 0.00 0.00 0.00 89 1016.3
20220628053625 17 300 3.2 3.2 0.00 0.00 0.00 89 1016.6
20220628053124 17 246 3.2 3.2 0.00 0.00 0.00 89 1016.0
20220628052623 17 338 0.0 1.6 0.00 0.00 0.00 89 1016.3
20220628052121 17 323 1.6 3.2 0.00 0.00 0.00 89 1016.3
20220628051620 17 345 0.0 3.2 0.00 0.00 0.00 89 1016.3
20220628051119 18 333 0.0 1.6 0.00 0.00 0.00 89 1016.3
20220628050618 18 270 3.2 3.2 0.00 0.00 0.00 89 1016.0
20220628050117 18 318 0.0 1.6 0.00 0.00 0.00 88 1016.3
20220628045616 18 330 0.0 3.2 0.00 0.00 0.00 88 1016.0
20220628045116 18 326 1.6 3.2 0.00 0.00 0.00 88 1016.0
20220628044614 18 334 1.6 3.2 0.00 0.00 0.00 88 1016.0
20220628044112 18 327 3.2 3.2 0.00 0.00 0.00 87 1016.0
20220628043612 18 329 0.0 1.6 0.00 0.00 0.00 87 1016.3
20220628043111 18 330 0.0 0.0 0.00 0.00 0.00 87 1016.0
20220628042609 18 343 1.6 3.2 0.00 0.00 0.00 86 1016.0
20220628042108 18 301 1.6 3.2 0.00 0.00 0.00 86 1016.0
20220628041606 18 297 0.0 3.2 0.00 0.00 0.00 85 1016.0
20220628041105 18 326 1.6 3.2 0.00 0.00 0.00 84 1015.6
20220628040604 18 331 0.0 0.0 0.00 0.00 0.00 84 1015.6
20220628040103 18 319 0.0 0.0 0.00 0.00 0.00 83 1015.6
20220628035602 18 338 0.0 0.0 0.00 0.00 0.00 83 1015.6
20220628035102 18 328 0.0 3.2 0.00 0.00 0.00 83 1015.3
20220628034602 18 317 1.6 3.2 0.00 0.00 0.00 83 1015.6